Marshfield, WI

1:47 AM CST on November 20, 2017 (GMT -0600)
Marshfield Municipal

Weather History for KMFI - May, 2013

Change the Weather History Date:

Wednesday, May 29, 2013

  Actual Average Record
Temperature  
Mean Temperature 68 °F -  
Max Temperature 82 °F 73 °F 89 °F (2006)
Min Temperature 55 °F 49 °F 28 °F (1965)
Cooling Degree Days 3    
Growing Degree Days 18 (Base 50)    
Moisture  
Dew Point 59 °F    
Average Humidity 95    
Maximum Humidity 100    
Minimum Humidity 52    
Precipitation  
Precipitation 1.08 in - - ()
Sea Level Pressure  
Sea Level Pressure 29.84 in    
Wind  
Wind Speed 3 mph (South)    
Max Wind Speed 18 mph    
Max Gust Speed 36 mph    
Visibility 4 miles    
Events Fog , Rain    
Averages and records for this station are not official NWS values.
T = Trace of Precipitation, MM = Missing Value Source: NWS Daily Summary

Daily Weather History Graph

Daily Weather History Graph

Search for Another Location

Airport or City:

Trip Planner

Search our weather history database for the weather conditions in past years. The results will help you decide how hot, cold, wet, or windy it might be!

Date:

Astronomy

May. 29, 2013 Rise Set
Actual Time 5:20 AM CDT 8:36 PM CDT
Civil Twilight 4:44 AM CDT 9:12 PM CDT
Nautical Twilight 3:58 AM CDT 9:58 PM CDT
Astronomical Twilight 3:01 AM CDT 10:56 PM CDT
Moon No Moon Rise 10:26 AM CDT (5/29)
Length of Visible Light 16h 27m
Length of Day
15h 16m
Waning Gibbous, 73% of the Moon is Illuminated
May 29
Waning Gibbous
May 31
Last Quarter
Jun 8
New
Jun 16
First Quarter
Jun 23
Full

Hourly Weather History & Observations

Time (CDT) Temp. Heat Index Dew Point Humidity Pressure Visibility Wind Dir Wind Speed Gust Speed Precip Events Conditions
12:54 AM 55.9 °F - 55.9 °F 100% 29.81 in 0.5 mi Calm Calm - N/A Fog Fog
1:54 AM 55.9 °F - 55.9 °F 100% 29.81 in 0.5 mi Calm Calm - N/A Fog Fog
2:54 AM 55.9 °F - 55.9 °F 100% 29.81 in 0.2 mi Calm Calm - N/A Fog Fog
3:26 AM 55.4 °F - 55.4 °F 100% 29.80 in 0.2 mi Calm Calm - N/A Fog Fog
3:54 AM 55.9 °F - 55.9 °F 100% 29.82 in 0.8 mi Calm Calm - N/A   Overcast
4:01 AM 55.4 °F - 55.4 °F 100% 29.81 in 1.0 mi Calm Calm - N/A   Overcast
4:15 AM 55.4 °F - 55.4 °F 100% 29.81 in 0.8 mi Calm Calm - N/A   Overcast
4:20 AM 55.4 °F - 55.4 °F 100% 29.81 in 1.0 mi Calm Calm - N/A   Overcast
4:26 AM 55.4 °F - 55.4 °F 100% 29.80 in 1.2 mi NNW 3.5 mph - N/A   Overcast
4:34 AM 55.4 °F - 55.4 °F 100% 29.80 in 0.8 mi NNW 4.6 mph - N/A   Overcast
4:50 AM 55.4 °F - 55.4 °F 100% 29.81 in 1.0 mi SW 3.5 mph - N/A   Overcast
4:54 AM 55.9 °F - 55.9 °F 100% 29.82 in 1.0 mi Calm Calm - N/A   Overcast
5:03 AM 55.4 °F - 55.4 °F 100% 29.82 in 1.5 mi WSW 3.5 mph - N/A   Overcast
5:10 AM 55.4 °F - 55.4 °F 100% 29.82 in 1.0 mi WNW 3.5 mph - N/A   Overcast
5:23 AM 55.4 °F - 55.4 °F 100% 29.82 in 1.2 mi WNW 3.5 mph - N/A   Overcast
5:30 AM 57.2 °F - 55.4 °F 94% 29.82 in 0.8 mi WNW 4.6 mph - N/A   Overcast
5:54 AM 57.0 °F - 55.9 °F 96% 29.84 in 1.0 mi WNW 3.5 mph - N/A   Overcast
6:03 AM 57.2 °F - 55.4 °F 94% 29.84 in 1.5 mi Calm Calm - N/A   Overcast
6:28 AM 57.2 °F - 55.4 °F 94% 29.85 in 2.0 mi Calm Calm - N/A   Overcast
6:38 AM 57.2 °F - 57.2 °F 100% 29.85 in 1.5 mi Calm Calm - N/A   Overcast
6:54 AM 57.0 °F - 57.0 °F 100% 29.86 in 1.8 mi West 3.5 mph - N/A   Overcast
7:07 AM 57.2 °F - 57.2 °F 100% 29.86 in 2.5 mi WSW 3.5 mph - N/A   Overcast
7:18 AM 57.2 °F - 57.2 °F 100% 29.85 in 1.5 mi Calm Calm - N/A   Overcast
7:30 AM 57.2 °F - 57.2 °F 100% 29.85 in 3.0 mi SW 3.5 mph - N/A   Overcast
7:40 AM 57.2 °F - 57.2 °F 100% 29.85 in 2.5 mi South 3.5 mph - N/A   Overcast
7:47 AM 57.2 °F - 57.2 °F 100% 29.85 in 1.0 mi Calm Calm - N/A   Overcast
7:54 AM 57.0 °F - 57.0 °F 100% 29.86 in 0.8 mi Calm Calm - N/A   Overcast
8:15 AM 57.2 °F - 57.2 °F 100% 29.86 in 1.0 mi Calm Calm - N/A   Overcast
8:30 AM 57.2 °F - 57.2 °F 100% 29.86 in 0.8 mi Calm Calm - N/A   Overcast
8:54 AM 57.9 °F - 57.9 °F 100% 29.87 in 0.5 mi SSW 4.6 mph - N/A Fog Fog
9:34 AM 59.0 °F - 59.0 °F 100% 29.86 in 1.2 mi SSE 3.5 mph - N/A   Overcast
9:47 AM 60.8 °F - 60.8 °F 100% 29.86 in 3.0 mi South 4.6 mph - N/A   Overcast
9:54 AM 60.1 °F - 59.0 °F 96% 29.88 in 3.0 mi South 5.8 mph - N/A   Overcast
10:54 AM 61.0 °F - 61.0 °F 100% 29.88 in 3.0 mi SSE 3.5 mph - N/A   Overcast
11:39 AM 64.4 °F - 62.6 °F 94% 29.87 in 5.0 mi Calm Calm - N/A   Overcast
11:54 AM 64.9 °F - 62.1 °F 90% 29.87 in 5.0 mi SE 4.6 mph - N/A   Overcast
12:32 PM 68.0 °F - 62.6 °F 83% 29.86 in 8.0 mi ESE 4.6 mph - N/A   Mostly Cloudy
12:54 PM 70.0 °F - 64.0 °F 81% 29.86 in 9.0 mi ESE 4.6 mph - N/A   Mostly Cloudy
1:11 PM 71.6 °F - 64.4 °F 78% 29.86 in 10.0 mi South 4.6 mph - N/A   Partly Cloudy
1:54 PM 75.0 °F - 66.0 °F 73% 29.84 in 10.0 mi SSE 6.9 mph - N/A   Clear
2:54 PM 80.1 °F 81.9 °F 64.9 °F 60% 29.82 in 10.0 mi SSE 8.1 mph - N/A   Partly Cloudy
3:54 PM 81.0 °F 81.9 °F 62.1 °F 52% 29.79 in 10.0 mi SE 10.4 mph - N/A   Clear
4:54 PM 79.0 °F - 60.1 °F 52% 29.78 in 10.0 mi SSE 10.4 mph - N/A   Clear
5:54 PM 64.9 °F - 60.1 °F 84% 29.86 in 5.0 mi West 18.4 mph 35.7 mph 0.08 in Rain Light Rain
6:04 PM 62.6 °F - 60.8 °F 94% 29.84 in 2.0 mi West 15.0 mph 23.0 mph 0.12 in Rain Heavy Rain
6:42 PM 62.6 °F - 62.6 °F 100% 29.83 in 6.0 mi SW 6.9 mph - 0.45 in Rain Light Rain
6:54 PM 63.0 °F - 61.0 °F 93% 29.83 in 6.0 mi West 6.9 mph - 0.48 in Rain Light Rain
7:54 PM 63.0 °F - 62.1 °F 97% 29.82 in 6.0 mi NNE 3.5 mph - 0.04 in Rain Rain
8:19 PM 62.6 °F - 62.6 °F 100% 29.87 in 1.8 mi SSW 11.5 mph - 0.17 in Rain Heavy Rain
8:24 PM 62.6 °F - 62.6 °F 100% 29.84 in 1.0 mi Calm Calm - 0.27 in Rain Heavy Rain
8:32 PM 62.6 °F - 62.6 °F 100% 29.85 in 2.0 mi SE 4.6 mph - 0.29 in Rain Rain
8:39 PM 62.6 °F - 62.6 °F 100% 29.84 in 4.0 mi ESE 6.9 mph - 0.31 in Rain Heavy Rain
8:51 PM 62.6 °F - 62.6 °F 100% 29.86 in 4.0 mi South 8.1 mph - 0.36 in Rain Rain
8:54 PM 62.1 °F - 62.1 °F 100% 29.86 in 4.0 mi South 9.2 mph - 0.37 in Rain Heavy Rain
9:05 PM 62.6 °F - 62.6 °F 100% 29.86 in 5.0 mi SSE 9.2 mph - 0.04 in Rain Rain
9:34 PM 62.6 °F - 62.6 °F 100% 29.86 in 7.0 mi South 4.6 mph - 0.10 in Rain Light Rain
9:41 PM 62.6 °F - 62.6 °F 100% 29.85 in 9.0 mi SSE 3.5 mph - 0.10 in Rain Light Rain
9:54 PM 62.1 °F - 62.1 °F 100% 29.85 in 8.0 mi SSE 5.8 mph - 0.11 in Rain Rain
10:54 PM 62.1 °F - 61.0 °F 96% 29.82 in 10.0 mi SSE 6.9 mph - 0.00 in Rain Light Rain
11:54 PM 62.1 °F - 61.0 °F 96% 29.82 in 10.0 mi South 5.8 mph - 0.00 in Rain Light Rain